Voltar ao catálogo

COSMOS 2251 DEB

AtivoVLEO
NORAD 36047·DEBRIS·🇷🇺 Russia

Lançado Jun 16, 1993 de Plesetsk Cosmodrome

Loading…

Próximas Passagens (próximas 24 horas)

TLE

EnvelhecendoSource: Space-Track

Época: Sep 13, 2026, 08:45 UTC

1 36047U 93036AXJ 26256.36504396  .00023832  00000-0  13092-2 0  9993
2 36047  74.0193 131.0305 0009020 130.4571 229.7411 15.13997755700725

Acompanhe COSMOS 2251 DEB em tempo real com AllMySat

Download on the App Store